Year,Month,Day,Hour,Minute,Value (Times are PST for temperature in C)
2010,05,22,00,00,5.60
2010,05,22,00,01,5.60
2010,05,22,00,02,5.60
2010,05,22,00,03,5.50
2010,05,22,00,04,5.50
2010,05,22,00,05,5.50
2010,05,22,00,06,5.50
2010,05,22,00,07,5.40
2010,05,22,00,08,5.40
2010,05,22,00,09,5.40
2010,05,22,00,10,5.40
2010,05,22,00,11,5.40
2010,05,22,00,12,5.30
2010,05,22,00,13,5.30
2010,05,22,00,14,5.30
2010,05,22,00,15,5.30
2010,05,22,00,16,5.30
2010,05,22,00,17,5.30
2010,05,22,00,18,5.30
2010,05,22,00,19,5.30
2010,05,22,00,20,5.30
2010,05,22,00,21,5.20
2010,05,22,00,22,5.20
2010,05,22,00,23,5.20
2010,05,22,00,24,5.20
2010,05,22,00,25,5.20
2010,05,22,00,26,5.20
2010,05,22,00,27,5.20
2010,05,22,00,28,5.20
2010,05,22,00,29,5.20
2010,05,22,00,30,5.20
2010,05,22,00,31,5.20
2010,05,22,00,32,5.20
2010,05,22,00,33,5.20
2010,05,22,00,34,5.20
2010,05,22,00,35,5.20
2010,05,22,00,36,5.20
2010,05,22,00,37,5.20
2010,05,22,00,38,5.20
2010,05,22,00,39,5.20
2010,05,22,00,40,5.20
2010,05,22,00,41,5.20
2010,05,22,00,42,5.30
2010,05,22,00,43,5.30
2010,05,22,00,44,5.30
2010,05,22,00,45,5.30
2010,05,22,00,46,5.30
2010,05,22,00,47,5.30
2010,05,22,00,48,5.30
2010,05,22,00,49,5.30
2010,05,22,00,50,5.40
2010,05,22,00,51,5.40
2010,05,22,00,52,5.40
2010,05,22,00,53,5.40
2010,05,22,00,54,5.40
2010,05,22,00,55,5.50
2010,05,22,00,56,5.50
2010,05,22,00,57,5.50
2010,05,22,00,58,5.50
2010,05,22,00,59,5.60
2010,05,22,01,00,5.60
2010,05,22,01,01,5.70
2010,05,22,01,02,5.70
2010,05,22,01,03,5.70
2010,05,22,01,04,5.80
2010,05,22,01,05,5.80
2010,05,22,01,06,5.90
2010,05,22,01,07,5.90
2010,05,22,01,08,5.90
2010,05,22,01,09,5.90
2010,05,22,01,10,6.00
2010,05,22,01,11,6.00
2010,05,22,01,12,6.00
2010,05,22,01,13,6.00
2010,05,22,01,14,6.00
2010,05,22,01,15,5.90
2010,05,22,01,16,5.90
2010,05,22,01,17,5.90
2010,05,22,01,18,5.90
2010,05,22,01,19,5.90
2010,05,22,01,20,5.90
2010,05,22,01,21,5.90
2010,05,22,01,22,5.90
2010,05,22,01,23,5.90
2010,05,22,01,24,5.90
2010,05,22,01,25,5.90
2010,05,22,01,26,5.90
2010,05,22,01,27,5.90
2010,05,22,01,28,5.90
2010,05,22,01,29,5.80
2010,05,22,01,30,5.80
2010,05,22,01,31,5.80
2010,05,22,01,32,5.80
2010,05,22,01,33,5.80
2010,05,22,01,34,5.80
2010,05,22,01,35,5.80
2010,05,22,01,36,5.80
2010,05,22,01,37,5.80
2010,05,22,01,38,5.80
2010,05,22,01,39,5.80
2010,05,22,01,40,5.80
2010,05,22,01,41,5.80
2010,05,22,01,42,5.80
2010,05,22,01,43,5.80
2010,05,22,01,44,5.80
2010,05,22,01,45,5.80
2010,05,22,01,46,5.80
2010,05,22,01,47,5.80
2010,05,22,01,48,5.80
2010,05,22,01,49,5.80
2010,05,22,01,50,5.80
2010,05,22,01,51,5.80
2010,05,22,01,52,5.80
2010,05,22,01,53,5.80
2010,05,22,01,54,5.80
2010,05,22,01,55,5.70
2010,05,22,01,56,5.70
2010,05,22,01,57,5.70
2010,05,22,01,58,5.70
2010,05,22,01,59,5.70
2010,05,22,02,00,5.70
2010,05,22,02,01,5.70
2010,05,22,02,02,5.70
2010,05,22,02,03,5.80
2010,05,22,02,04,5.80
2010,05,22,02,05,5.80
2010,05,22,02,06,5.80
2010,05,22,02,07,5.80
2010,05,22,02,08,5.80
2010,05,22,02,09,5.80
2010,05,22,02,10,5.90
2010,05,22,02,11,5.90
2010,05,22,02,12,5.90
2010,05,22,02,13,5.90
2010,05,22,02,14,5.90
2010,05,22,02,15,5.90
2010,05,22,02,16,5.90
2010,05,22,02,17,5.90
2010,05,22,02,18,5.90
2010,05,22,02,19,5.90
2010,05,22,02,20,6.00
2010,05,22,02,21,6.00
2010,05,22,02,22,6.10
2010,05,22,02,23,6.10
2010,05,22,02,24,6.10
2010,05,22,02,25,6.20
2010,05,22,02,26,6.20
2010,05,22,02,27,6.20
2010,05,22,02,28,6.20
2010,05,22,02,29,6.20
2010,05,22,02,30,6.20
2010,05,22,02,31,6.20
2010,05,22,02,32,6.30
2010,05,22,02,33,6.30
2010,05,22,02,34,6.30
2010,05,22,02,35,6.30
2010,05,22,02,36,6.30
2010,05,22,02,37,6.40
2010,05,22,02,38,6.40
2010,05,22,02,39,6.40
2010,05,22,02,40,6.40
2010,05,22,02,41,6.40
2010,05,22,02,42,6.50
2010,05,22,02,43,6.50
2010,05,22,02,44,6.50
2010,05,22,02,45,6.50
2010,05,22,02,46,6.50
2010,05,22,02,47,6.60
2010,05,22,02,48,6.60
2010,05,22,02,49,6.60
2010,05,22,02,50,6.50
2010,05,22,02,51,6.50
2010,05,22,02,52,6.50
2010,05,22,02,53,6.50
2010,05,22,02,54,6.50
2010,05,22,02,55,6.50
2010,05,22,02,56,6.50
2010,05,22,02,57,6.40
2010,05,22,02,58,6.40
2010,05,22,02,59,6.40
2010,05,22,03,00,6.40
2010,05,22,03,01,6.40
2010,05,22,03,02,6.40
2010,05,22,03,03,6.40
2010,05,22,03,04,6.30
2010,05,22,03,05,6.30
2010,05,22,03,06,6.30
2010,05,22,03,07,6.30
2010,05,22,03,08,6.30
2010,05,22,03,09,6.30
2010,05,22,03,10,6.30
2010,05,22,03,11,6.30
2010,05,22,03,12,6.30
2010,05,22,03,13,6.30
2010,05,22,03,14,6.30
2010,05,22,03,15,6.30
2010,05,22,03,16,6.30
2010,05,22,03,17,6.40
2010,05,22,03,18,6.40
2010,05,22,03,19,6.40
2010,05,22,03,20,6.40
2010,05,22,03,21,6.40
2010,05,22,03,22,6.40
2010,05,22,03,23,6.50
2010,05,22,03,24,6.50
2010,05,22,03,25,6.50
2010,05,22,03,26,6.60
2010,05,22,03,27,6.60
2010,05,22,03,28,6.60
2010,05,22,03,29,6.70
2010,05,22,03,30,6.70
2010,05,22,03,31,6.70
2010,05,22,03,32,6.80
2010,05,22,03,33,6.80
2010,05,22,03,34,6.80
2010,05,22,03,35,6.80
2010,05,22,03,36,6.90
2010,05,22,03,37,6.90
2010,05,22,03,38,7.00
2010,05,22,03,39,7.00
2010,05,22,03,40,7.00
2010,05,22,03,41,7.10
2010,05,22,03,42,7.10
2010,05,22,03,43,7.10
2010,05,22,03,44,7.20
2010,05,22,03,45,7.20
2010,05,22,03,46,7.20
2010,05,22,03,47,7.20
2010,05,22,03,48,7.20
2010,05,22,03,49,7.20
2010,05,22,03,50,7.20
2010,05,22,03,51,7.30
2010,05,22,03,52,7.30
2010,05,22,03,53,7.30
2010,05,22,03,54,7.30
2010,05,22,03,55,7.30
2010,05,22,03,56,7.30
2010,05,22,03,57,7.30
2010,05,22,03,58,7.40
2010,05,22,03,59,7.40
2010,05,22,04,00,7.40
2010,05,22,04,01,7.40
2010,05,22,04,02,7.40
2010,05,22,04,03,7.40
2010,05,22,04,04,7.40
2010,05,22,04,05,7.40
2010,05,22,04,06,7.40
2010,05,22,04,07,7.40
2010,05,22,04,08,7.40
2010,05,22,04,09,7.40
2010,05,22,04,10,7.40
2010,05,22,04,11,7.40
2010,05,22,04,12,7.40
2010,05,22,04,13,7.40
2010,05,22,04,14,7.40
2010,05,22,04,15,7.40
2010,05,22,04,16,7.40
2010,05,22,04,17,7.30
2010,05,22,04,18,7.30
2010,05,22,04,19,7.30
2010,05,22,04,20,7.30
2010,05,22,04,21,7.30
2010,05,22,04,22,7.30
2010,05,22,04,23,7.30
2010,05,22,04,24,7.30
2010,05,22,04,25,7.30
2010,05,22,04,26,7.30
2010,05,22,04,27,7.30
2010,05,22,04,28,7.30
2010,05,22,04,29,7.30
2010,05,22,04,30,7.30
2010,05,22,04,31,7.30
2010,05,22,04,32,7.30
2010,05,22,04,33,7.30
2010,05,22,04,34,7.30
2010,05,22,04,35,7.30
2010,05,22,04,36,7.20
2010,05,22,04,37,7.20
2010,05,22,04,38,7.20
2010,05,22,04,39,7.20
2010,05,22,04,40,7.20
2010,05,22,04,41,7.20
2010,05,22,04,42,7.20
2010,05,22,04,43,7.20
2010,05,22,04,44,7.20
2010,05,22,04,45,7.20
2010,05,22,04,46,7.20
2010,05,22,04,47,7.20
2010,05,22,04,48,7.20
2010,05,22,04,49,7.20
2010,05,22,04,50,7.20
2010,05,22,04,51,7.20
2010,05,22,04,52,7.20
2010,05,22,04,53,7.20
2010,05,22,04,54,7.20
2010,05,22,04,55,7.20
2010,05,22,04,56,7.20
2010,05,22,04,57,7.20
2010,05,22,04,58,7.20
2010,05,22,04,59,7.10
2010,05,22,05,00,7.10
2010,05,22,05,01,7.10
2010,05,22,05,02,7.10
2010,05,22,05,03,7.10
2010,05,22,05,04,7.10
2010,05,22,05,05,7.00
2010,05,22,05,06,7.00
2010,05,22,05,07,7.00
2010,05,22,05,08,7.00
2010,05,22,05,09,6.90
2010,05,22,05,10,6.90
2010,05,22,05,11,6.90
2010,05,22,05,12,6.90
2010,05,22,05,13,6.80
2010,05,22,05,14,6.80
2010,05,22,05,15,6.80
2010,05,22,05,16,6.80
2010,05,22,05,17,6.70
2010,05,22,05,18,6.70
2010,05,22,05,19,6.70
2010,05,22,05,20,6.70
2010,05,22,05,21,6.70
2010,05,22,05,22,6.60
2010,05,22,05,23,6.60
2010,05,22,05,24,6.60
2010,05,22,05,25,6.60
2010,05,22,05,26,6.60
2010,05,22,05,27,6.50
2010,05,22,05,28,6.50
2010,05,22,05,29,6.50
2010,05,22,05,30,6.50
2010,05,22,05,31,6.40
2010,05,22,05,32,6.40
2010,05,22,05,33,6.40
2010,05,22,05,34,6.40
2010,05,22,05,35,6.40
2010,05,22,05,36,6.30
2010,05,22,05,37,6.30
2010,05,22,05,38,6.30
2010,05,22,05,39,6.30
2010,05,22,05,40,6.20
2010,05,22,05,41,6.20
2010,05,22,05,42,6.20
2010,05,22,05,43,6.20
2010,05,22,05,44,6.20
2010,05,22,05,45,6.20
2010,05,22,05,46,6.10
2010,05,22,05,47,6.10
2010,05,22,05,48,6.10
2010,05,22,05,49,6.10
2010,05,22,05,50,6.10
2010,05,22,05,51,6.10
2010,05,22,05,52,6.00
2010,05,22,05,53,6.00
2010,05,22,05,54,6.00
2010,05,22,05,55,5.90
2010,05,22,05,56,5.90
2010,05,22,05,57,5.90
2010,05,22,05,58,5.90
2010,05,22,05,59,5.90
2010,05,22,06,00,5.90
2010,05,22,06,01,5.90
2010,05,22,06,02,5.90
2010,05,22,06,03,5.90
2010,05,22,06,04,5.90
2010,05,22,06,05,5.90
2010,05,22,06,06,5.90
2010,05,22,06,07,5.90
2010,05,22,06,08,5.90
2010,05,22,06,09,5.90
2010,05,22,06,10,5.90
2010,05,22,06,11,5.90
2010,05,22,06,12,5.90
2010,05,22,06,13,5.90
2010,05,22,06,14,5.90
2010,05,22,06,15,5.90
2010,05,22,06,16,5.90
2010,05,22,06,17,5.90
2010,05,22,06,18,5.90
2010,05,22,06,19,5.90
2010,05,22,06,20,5.90
2010,05,22,06,21,6.00
2010,05,22,06,22,6.00
2010,05,22,06,23,6.00
2010,05,22,06,24,6.10
2010,05,22,06,25,6.10
2010,05,22,06,26,6.10
2010,05,22,06,27,6.10
2010,05,22,06,28,6.10
2010,05,22,06,29,6.10
2010,05,22,06,30,6.10
2010,05,22,06,31,6.10
2010,05,22,06,32,6.20
2010,05,22,06,33,6.20
2010,05,22,06,34,6.20
2010,05,22,06,35,6.20
2010,05,22,06,36,6.20
2010,05,22,06,37,6.20
2010,05,22,06,38,6.30
2010,05,22,06,39,6.30
2010,05,22,06,40,6.30
2010,05,22,06,41,6.30
2010,05,22,06,42,6.40
2010,05,22,06,43,6.40
2010,05,22,06,44,6.40
2010,05,22,06,45,6.50
2010,05,22,06,46,6.50
2010,05,22,06,47,6.60
2010,05,22,06,48,6.70
2010,05,22,06,49,6.70
2010,05,22,06,50,6.80
2010,05,22,06,51,6.80
2010,05,22,06,52,6.90
2010,05,22,06,53,6.90
2010,05,22,06,54,7.00
2010,05,22,06,55,7.00
2010,05,22,06,56,7.10
2010,05,22,06,57,7.10
2010,05,22,06,58,7.20
2010,05,22,06,59,7.20
2010,05,22,07,00,7.20
2010,05,22,07,01,7.30
2010,05,22,07,02,7.30
2010,05,22,07,03,7.40
2010,05,22,07,04,7.40
2010,05,22,07,05,7.50
2010,05,22,07,06,7.50
2010,05,22,07,07,7.60
2010,05,22,07,08,7.60
2010,05,22,07,09,7.70
2010,05,22,07,10,7.70
2010,05,22,07,11,7.80
2010,05,22,07,12,7.80
2010,05,22,07,13,7.90
2010,05,22,07,14,7.90
2010,05,22,07,15,8.00
2010,05,22,07,16,8.10
2010,05,22,07,17,8.20
2010,05,22,07,18,8.30
2010,05,22,07,19,8.30
2010,05,22,07,20,8.40
2010,05,22,07,21,8.50
2010,05,22,07,22,8.60
2010,05,22,07,23,8.60
2010,05,22,07,24,8.70
2010,05,22,07,25,8.70
2010,05,22,07,26,8.80
2010,05,22,07,27,8.80
2010,05,22,07,28,8.90
2010,05,22,07,29,8.90
2010,05,22,07,30,9.00
2010,05,22,07,31,9.00
2010,05,22,07,32,9.10
2010,05,22,07,33,9.10
2010,05,22,07,34,9.20
2010,05,22,07,35,9.20
2010,05,22,07,36,9.20
2010,05,22,07,37,9.30
2010,05,22,07,38,9.30
2010,05,22,07,39,9.30
2010,05,22,07,40,9.30
2010,05,22,07,41,9.30
2010,05,22,07,42,9.40
2010,05,22,07,43,9.40
2010,05,22,07,44,9.40
2010,05,22,07,45,9.40
2010,05,22,07,46,9.50
2010,05,22,07,47,9.50
2010,05,22,07,48,9.60
2010,05,22,07,49,9.60
2010,05,22,07,50,9.60
2010,05,22,07,51,9.70
2010,05,22,07,52,9.80
2010,05,22,07,53,9.80
2010,05,22,07,54,9.80
2010,05,22,07,55,9.90
2010,05,22,07,56,9.90
2010,05,22,07,57,10.00
2010,05,22,07,58,10.10
2010,05,22,07,59,10.10
2010,05,22,08,00,10.20
2010,05,22,08,01,10.30
2010,05,22,08,02,10.30
2010,05,22,08,03,10.40
2010,05,22,08,04,10.50
2010,05,22,08,05,10.50
2010,05,22,08,06,10.60
2010,05,22,08,07,10.70
2010,05,22,08,08,10.70
2010,05,22,08,09,10.70
2010,05,22,08,10,10.70
2010,05,22,08,11,10.70
2010,05,22,08,12,10.80
2010,05,22,08,13,10.80
2010,05,22,08,14,10.80
2010,05,22,08,15,10.80
2010,05,22,08,16,10.80
2010,05,22,08,17,10.70
2010,05,22,08,18,10.70
2010,05,22,08,19,10.70
2010,05,22,08,20,10.70
2010,05,22,08,21,10.70
2010,05,22,08,22,10.60
2010,05,22,08,23,10.60
2010,05,22,08,24,10.60
2010,05,22,08,25,10.50
2010,05,22,08,26,10.50
2010,05,22,08,27,10.50
2010,05,22,08,28,10.50
2010,05,22,08,29,10.50
2010,05,22,08,30,10.50
2010,05,22,08,31,10.60
2010,05,22,08,32,10.60
2010,05,22,08,33,10.60
2010,05,22,08,34,10.60
2010,05,22,08,35,10.60
2010,05,22,08,36,10.60
2010,05,22,08,37,10.60
2010,05,22,08,38,10.60
2010,05,22,08,39,10.60
2010,05,22,08,40,10.60
2010,05,22,08,41,10.60
2010,05,22,08,42,10.70
2010,05,22,08,43,10.70
2010,05,22,08,44,10.70
2010,05,22,08,45,10.70
2010,05,22,08,46,10.70
2010,05,22,08,47,10.70
2010,05,22,08,48,10.70
2010,05,22,08,49,10.70
2010,05,22,08,50,10.70
2010,05,22,08,51,10.80
2010,05,22,08,52,10.80
2010,05,22,08,53,10.80
2010,05,22,08,54,10.80
2010,05,22,08,55,10.80
2010,05,22,08,56,10.80
2010,05,22,08,57,10.80
2010,05,22,08,58,10.90
2010,05,22,08,59,10.90
2010,05,22,09,00,10.90
2010,05,22,09,01,10.90
2010,05,22,09,02,11.00
2010,05,22,09,03,11.00
2010,05,22,09,04,11.00
2010,05,22,09,05,11.00
2010,05,22,09,06,11.00
2010,05,22,09,07,10.90
2010,05,22,09,08,10.90
2010,05,22,09,09,10.90
2010,05,22,09,10,10.90
2010,05,22,09,11,11.00
2010,05,22,09,12,11.00
2010,05,22,09,13,11.00
2010,05,22,09,14,11.00
2010,05,22,09,15,11.00
2010,05,22,09,16,11.00
2010,05,22,09,17,11.00
2010,05,22,09,18,11.00
2010,05,22,09,19,11.00
2010,05,22,09,20,11.00
2010,05,22,09,21,11.00
2010,05,22,09,22,11.00
2010,05,22,09,23,11.00
2010,05,22,09,24,11.00
2010,05,22,09,25,11.10
2010,05,22,09,26,11.10
2010,05,22,09,27,11.10
2010,05,22,09,28,11.10
2010,05,22,09,29,11.20
2010,05,22,09,30,11.20
2010,05,22,09,31,11.30
2010,05,22,09,32,11.30
2010,05,22,09,33,11.30
2010,05,22,09,34,11.30
2010,05,22,09,35,11.40
2010,05,22,09,36,11.40
2010,05,22,09,37,11.50
2010,05,22,09,38,11.60
2010,05,22,09,39,11.70
2010,05,22,09,40,11.70
2010,05,22,09,41,11.80
2010,05,22,09,42,11.80
2010,05,22,09,43,11.90
2010,05,22,09,44,11.90
2010,05,22,09,45,12.00
2010,05,22,09,46,12.10
2010,05,22,09,47,12.20
2010,05,22,09,48,12.20
2010,05,22,09,49,12.20
2010,05,22,09,50,12.30
2010,05,22,09,51,12.30
2010,05,22,09,52,12.40
2010,05,22,09,53,12.50
2010,05,22,09,54,12.60
2010,05,22,09,55,12.60
2010,05,22,09,56,12.70
2010,05,22,09,57,12.70
2010,05,22,09,58,12.80
2010,05,22,09,59,12.80
2010,05,22,10,00,12.80
2010,05,22,10,01,12.90
2010,05,22,10,02,13.00
2010,05,22,10,03,13.10
2010,05,22,10,04,13.10
2010,05,22,10,05,13.20
2010,05,22,10,06,13.20
2010,05,22,10,07,13.10
2010,05,22,10,08,13.10
2010,05,22,10,09,13.10
2010,05,22,10,10,13.10
2010,05,22,10,11,13.10
2010,05,22,10,12,13.20
2010,05,22,10,13,13.20
2010,05,22,10,14,13.30
2010,05,22,10,15,13.40
2010,05,22,10,16,13.40
2010,05,22,10,17,13.50
2010,05,22,10,18,13.40
2010,05,22,10,19,13.30
2010,05,22,10,20,13.20
2010,05,22,10,21,13.20
2010,05,22,10,22,13.10
2010,05,22,10,23,13.00
2010,05,22,10,24,13.00
2010,05,22,10,25,12.90
2010,05,22,10,26,12.90
2010,05,22,10,27,12.80
2010,05,22,10,28,12.80
2010,05,22,10,29,12.70
2010,05,22,10,30,12.60
2010,05,22,10,31,12.50
2010,05,22,10,32,12.40
2010,05,22,10,33,12.30
2010,05,22,10,34,12.20
2010,05,22,10,35,12.20
2010,05,22,10,36,12.10
2010,05,22,10,37,12.00
2010,05,22,10,38,12.00
2010,05,22,10,39,11.90
2010,05,22,10,40,11.90
2010,05,22,10,41,11.90
2010,05,22,10,42,12.00
2010,05,22,10,43,12.10
2010,05,22,10,44,12.10
2010,05,22,10,45,12.20
2010,05,22,10,46,12.30
2010,05,22,10,47,12.40
2010,05,22,10,48,12.50
2010,05,22,10,49,12.50
2010,05,22,10,50,12.50
2010,05,22,10,51,12.40
2010,05,22,10,52,12.40
2010,05,22,10,53,12.40
2010,05,22,10,54,12.40
2010,05,22,10,55,12.40
2010,05,22,10,56,12.40
2010,05,22,10,57,12.50
2010,05,22,10,58,12.50
2010,05,22,10,59,12.60
2010,05,22,11,00,12.60
2010,05,22,11,01,12.70
2010,05,22,11,02,12.70
2010,05,22,11,03,12.70
2010,05,22,11,04,12.70
2010,05,22,11,05,12.70
2010,05,22,11,06,12.80
2010,05,22,11,07,12.80
2010,05,22,11,08,12.90
2010,05,22,11,09,12.90
2010,05,22,11,10,12.90
2010,05,22,11,11,12.90
2010,05,22,11,12,12.80
2010,05,22,11,13,12.80
2010,05,22,11,14,12.80
2010,05,22,11,15,12.80
2010,05,22,11,16,12.80
2010,05,22,11,17,12.80
2010,05,22,11,18,12.80
2010,05,22,11,19,12.80
2010,05,22,11,20,12.80
2010,05,22,11,21,12.80
2010,05,22,11,22,12.80
2010,05,22,11,23,12.80
2010,05,22,11,24,12.80
2010,05,22,11,25,12.80
2010,05,22,11,26,12.70
2010,05,22,11,27,12.70
2010,05,22,11,28,12.60
2010,05,22,11,29,12.50
2010,05,22,11,30,12.40
2010,05,22,11,31,12.40
2010,05,22,11,32,12.40
2010,05,22,11,33,12.50
2010,05,22,11,34,12.60
2010,05,22,11,35,12.70
2010,05,22,11,36,12.70
2010,05,22,11,37,12.80
2010,05,22,11,38,12.80
2010,05,22,11,39,12.70
2010,05,22,11,40,12.70
2010,05,22,11,41,12.60
2010,05,22,11,42,12.60
2010,05,22,11,43,12.50
2010,05,22,11,44,12.40
2010,05,22,11,45,12.40
2010,05,22,11,46,12.40
2010,05,22,11,47,12.30
2010,05,22,11,48,12.30
2010,05,22,11,49,12.30
2010,05,22,11,50,12.30
2010,05,22,11,51,12.20
2010,05,22,11,52,12.20
2010,05,22,11,53,12.20
2010,05,22,11,54,12.10
2010,05,22,11,55,12.10
2010,05,22,11,56,12.10
2010,05,22,11,57,12.10
2010,05,22,11,58,12.10
2010,05,22,11,59,12.10
2010,05,22,12,00,12.10
2010,05,22,12,01,12.00
2010,05,22,12,02,12.00
2010,05,22,12,03,12.00
2010,05,22,12,04,11.90
2010,05,22,12,05,11.90
2010,05,22,12,06,11.90
2010,05,22,12,07,11.90
2010,05,22,12,08,11.90
2010,05,22,12,09,11.90
2010,05,22,12,10,11.90
2010,05,22,12,11,11.90
2010,05,22,12,12,11.80
2010,05,22,12,13,11.80
2010,05,22,12,14,11.80
2010,05,22,12,15,11.80
2010,05,22,12,16,11.80
2010,05,22,12,17,11.80
2010,05,22,12,18,11.80
2010,05,22,12,19,11.80
2010,05,22,12,20,11.80
2010,05,22,12,21,11.90
2010,05,22,12,22,12.00
2010,05,22,12,23,12.00
2010,05,22,12,24,12.10
2010,05,22,12,25,12.10
2010,05,22,12,26,12.20
2010,05,22,12,27,12.20
2010,05,22,12,28,12.20
2010,05,22,12,29,12.20
2010,05,22,12,30,12.20
2010,05,22,12,31,12.30
2010,05,22,12,32,12.30
2010,05,22,12,33,12.40
2010,05,22,12,34,12.50
2010,05,22,12,35,12.50
2010,05,22,12,36,12.60
2010,05,22,12,37,12.50
2010,05,22,12,38,12.50
2010,05,22,12,39,12.40
2010,05,22,12,40,12.40
2010,05,22,12,41,12.30
2010,05,22,12,42,12.30
2010,05,22,12,43,12.30
2010,05,22,12,44,12.30
2010,05,22,12,45,12.30
2010,05,22,12,46,12.30
2010,05,22,12,47,12.30
2010,05,22,12,48,12.30
2010,05,22,12,49,12.40
2010,05,22,12,50,12.40
2010,05,22,12,51,12.40
2010,05,22,12,52,12.50
2010,05,22,12,53,12.50
2010,05,22,12,54,12.50
2010,05,22,12,55,12.50
2010,05,22,12,56,12.40
2010,05,22,12,57,12.40
2010,05,22,12,58,12.40
2010,05,22,12,59,12.40
2010,05,22,13,00,12.40
2010,05,22,13,01,12.30
2010,05,22,13,02,12.30
2010,05,22,13,03,12.30
2010,05,22,13,04,12.30
2010,05,22,13,05,12.30
2010,05,22,13,06,12.30
2010,05,22,13,07,12.30
2010,05,22,13,08,12.30
2010,05,22,13,09,12.30
2010,05,22,13,10,12.30
2010,05,22,13,11,12.30
2010,05,22,13,12,12.30
2010,05,22,13,13,12.30
2010,05,22,13,14,12.30
2010,05,22,13,15,12.30
2010,05,22,13,16,12.40
2010,05,22,13,17,12.40
2010,05,22,13,18,12.50
2010,05,22,13,19,12.60
2010,05,22,13,20,12.60
2010,05,22,13,21,12.60
2010,05,22,13,22,12.60
2010,05,22,13,23,12.60
2010,05,22,13,24,12.60
2010,05,22,13,25,12.60
2010,05,22,13,26,12.60
2010,05,22,13,27,12.60
2010,05,22,13,28,12.60
2010,05,22,13,29,12.60
2010,05,22,13,30,12.60
2010,05,22,13,31,12.60
2010,05,22,13,32,12.60
2010,05,22,13,33,12.50
2010,05,22,13,34,12.50
2010,05,22,13,35,12.40
2010,05,22,13,36,12.40
2010,05,22,13,37,12.50
2010,05,22,13,38,12.50
2010,05,22,13,39,12.50
2010,05,22,13,40,12.40
2010,05,22,13,41,12.40
2010,05,22,13,42,12.40
2010,05,22,13,43,12.50
2010,05,22,13,44,12.50
2010,05,22,13,45,12.50
2010,05,22,13,46,12.50
2010,05,22,13,47,12.50
2010,05,22,13,48,12.50
2010,05,22,13,49,12.60
2010,05,22,13,50,12.60
2010,05,22,13,51,12.60
2010,05,22,13,52,12.60
2010,05,22,13,53,12.60
2010,05,22,13,54,12.60
2010,05,22,13,55,12.60
2010,05,22,13,56,12.60
2010,05,22,13,57,12.70
2010,05,22,13,58,12.70
2010,05,22,13,59,12.70
2010,05,22,14,00,12.70
2010,05,22,14,01,12.70
2010,05,22,14,02,12.60
2010,05,22,14,03,12.60
2010,05,22,14,04,12.60
2010,05,22,14,05,12.60
2010,05,22,14,06,12.60
2010,05,22,14,07,12.60
2010,05,22,14,08,12.60
2010,05,22,14,09,12.50
2010,05,22,14,10,12.60
2010,05,22,14,11,12.60
2010,05,22,14,12,12.60
2010,05,22,14,13,12.60
2010,05,22,14,14,12.60
2010,05,22,14,15,12.60
2010,05,22,14,16,12.60
2010,05,22,14,17,12.60
2010,05,22,14,18,12.60
2010,05,22,14,19,12.60
2010,05,22,14,20,12.60
2010,05,22,14,21,12.60
2010,05,22,14,22,12.60
2010,05,22,14,23,12.60
2010,05,22,14,24,12.50
2010,05,22,14,25,12.50
2010,05,22,14,26,12.50
2010,05,22,14,27,12.40
2010,05,22,14,28,12.40
2010,05,22,14,29,12.40
2010,05,22,14,30,12.40
2010,05,22,14,31,12.40
2010,05,22,14,32,12.40
2010,05,22,14,33,12.30
2010,05,22,14,34,12.30
2010,05,22,14,35,12.30
2010,05,22,14,36,12.30
2010,05,22,14,37,12.30
2010,05,22,14,38,12.30
2010,05,22,14,39,12.30
2010,05,22,14,40,12.40
2010,05,22,14,41,12.40
2010,05,22,14,42,12.50
2010,05,22,14,43,12.50
2010,05,22,14,44,12.60
2010,05,22,14,45,12.60
2010,05,22,14,46,12.60
2010,05,22,14,47,12.60
2010,05,22,14,48,12.60
2010,05,22,14,49,12.60
2010,05,22,14,50,12.60
2010,05,22,14,51,12.60
2010,05,22,14,52,12.60
2010,05,22,14,53,12.60
2010,05,22,14,54,12.60
2010,05,22,14,55,12.60
2010,05,22,14,56,12.60
2010,05,22,14,57,12.60
2010,05,22,14,58,12.60
2010,05,22,14,59,12.60
2010,05,22,15,00,12.70
2010,05,22,15,01,12.70
2010,05,22,15,02,12.70
2010,05,22,15,03,12.80
2010,05,22,15,04,12.80
2010,05,22,15,05,12.80
2010,05,22,15,06,12.80
2010,05,22,15,07,12.80
2010,05,22,15,08,12.80
2010,05,22,15,09,12.80
2010,05,22,15,10,12.80
2010,05,22,15,11,12.70
2010,05,22,15,12,12.70
2010,05,22,15,13,12.60
2010,05,22,15,14,12.60
2010,05,22,15,15,12.50
2010,05,22,15,16,12.50
2010,05,22,15,17,12.40
2010,05,22,15,18,12.30
2010,05,22,15,19,12.30
2010,05,22,15,20,12.30
2010,05,22,15,21,12.30
2010,05,22,15,22,12.30
2010,05,22,15,23,12.30
2010,05,22,15,24,12.30
2010,05,22,15,25,12.30
2010,05,22,15,26,12.30
2010,05,22,15,27,12.30
2010,05,22,15,28,12.30
2010,05,22,15,29,12.30
2010,05,22,15,30,12.40
2010,05,22,15,31,12.40
2010,05,22,15,32,12.40
2010,05,22,15,33,12.50
2010,05,22,15,34,12.50
2010,05,22,15,35,12.60
2010,05,22,15,36,12.70
2010,05,22,15,37,12.70
2010,05,22,15,38,12.80
2010,05,22,15,39,12.80
2010,05,22,15,40,12.90
2010,05,22,15,41,12.90
2010,05,22,15,42,13.00
2010,05,22,15,43,13.10
2010,05,22,15,44,13.20
2010,05,22,15,45,13.20
2010,05,22,15,46,13.30
2010,05,22,15,47,13.30
2010,05,22,15,48,13.30
2010,05,22,15,49,13.20
2010,05,22,15,50,13.10
2010,05,22,15,51,13.10
2010,05,22,15,52,13.10
2010,05,22,15,53,13.10
2010,05,22,15,54,13.10
2010,05,22,15,55,13.00
2010,05,22,15,56,12.90
2010,05,22,15,57,12.90
2010,05,22,15,58,12.90
2010,05,22,15,59,12.80
2010,05,22,16,00,12.80
2010,05,22,16,01,12.80
2010,05,22,16,02,12.80
2010,05,22,16,03,12.80
2010,05,22,16,04,12.90
2010,05,22,16,05,12.90
2010,05,22,16,06,12.90
2010,05,22,16,07,12.90
2010,05,22,16,08,13.00
2010,05,22,16,09,13.00
2010,05,22,16,10,13.00
2010,05,22,16,11,13.00
2010,05,22,16,12,12.90
2010,05,22,16,13,12.90
2010,05,22,16,14,12.80
2010,05,22,16,15,12.80
2010,05,22,16,16,12.80
2010,05,22,16,17,12.90
2010,05,22,16,18,12.90
2010,05,22,16,19,12.90
2010,05,22,16,20,12.90
2010,05,22,16,21,12.90
2010,05,22,16,22,13.00
2010,05,22,16,23,13.00
2010,05,22,16,24,13.10
2010,05,22,16,25,13.10
2010,05,22,16,26,13.10
2010,05,22,16,27,13.10
2010,05,22,16,28,13.10
2010,05,22,16,29,13.10
2010,05,22,16,30,13.00
2010,05,22,16,31,12.90
2010,05,22,16,32,12.90
2010,05,22,16,33,12.90
2010,05,22,16,34,12.90
2010,05,22,16,35,12.90
2010,05,22,16,36,13.00
2010,05,22,16,37,12.90
2010,05,22,16,38,12.90
2010,05,22,16,39,12.80
2010,05,22,16,40,12.80
2010,05,22,16,41,12.80
2010,05,22,16,42,12.80
2010,05,22,16,43,12.80
2010,05,22,16,44,12.70
2010,05,22,16,45,12.60
2010,05,22,16,46,12.60
2010,05,22,16,47,12.60
2010,05,22,16,48,12.60
2010,05,22,16,49,12.60
2010,05,22,16,50,12.50
2010,05,22,16,51,12.40
2010,05,22,16,52,12.40
2010,05,22,16,53,12.40
2010,05,22,16,54,12.40
2010,05,22,16,55,12.40
2010,05,22,16,56,12.50
2010,05,22,16,57,12.50
2010,05,22,16,58,12.50
2010,05,22,16,59,12.60
2010,05,22,17,00,12.60
2010,05,22,17,01,12.50
2010,05,22,17,02,12.50
2010,05,22,17,03,12.50
2010,05,22,17,04,12.50
2010,05,22,17,05,12.50
2010,05,22,17,06,12.40
2010,05,22,17,07,12.40
2010,05,22,17,08,12.40
2010,05,22,17,09,12.40
2010,05,22,17,10,12.40
2010,05,22,17,11,12.40
2010,05,22,17,12,12.40
2010,05,22,17,13,12.40
2010,05,22,17,14,12.40
2010,05,22,17,15,12.40
2010,05,22,17,16,12.40
2010,05,22,17,17,12.40
2010,05,22,17,18,12.40
2010,05,22,17,19,12.40
2010,05,22,17,20,12.40
2010,05,22,17,21,12.40
2010,05,22,17,22,12.40
2010,05,22,17,23,12.50
2010,05,22,17,24,12.50
2010,05,22,17,25,12.50
2010,05,22,17,26,12.50
2010,05,22,17,27,12.40
2010,05,22,17,28,12.40
2010,05,22,17,29,12.40
2010,05,22,17,30,12.50
2010,05,22,17,31,12.50
2010,05,22,17,32,12.50
2010,05,22,17,33,12.50
2010,05,22,17,34,12.50
2010,05,22,17,35,12.50
2010,05,22,17,36,12.50
2010,05,22,17,37,12.40
2010,05,22,17,38,12.40
2010,05,22,17,39,12.40
2010,05,22,17,40,12.30